Yuba City, California, United States (95991)
Lat: 39.14N, Lon: 121.62W
Wx Zone: CAZ016
Local Info
Past Weather Observations for Wednesday, October 15, 2014

NOTE: This archive is for the closest National Weather Service station to Yuba City. Information may differ from the station used for current weather conditions.

Click here for Long-term Archive

Time Weather Temperature Dewpoint Humidity Pressure Winds Precip Visibility
23:53
Clear
59°F / 15°C 55°F / 13°C 88% 30.01 in
(1016 mb)
E 4.6 mph
(E 7 kph)
- 10SM
22:53
Clear
59°F / 15°C 55°F / 13°C 88% 30.01 in
(1016 mb)
Calm - 10SM
21:53
Clear
61°F / 16°C 54°F / 12°C 77% 30.01 in
(1016 mb)
Calm - 10SM
20:53
Clear
61°F / 16°C 54°F / 12°C 77% 30.01 in
(1016 mb)
Calm - 10SM
19:53
Clear
61°F / 16°C 54°F / 12°C 77% 29.98 in
(1015 mb)
Calm - 10SM
18:53
Clear
61°F / 16°C 52°F / 11°C 72% 30.01 in
(1016 mb)
Calm - 8SM
17:53
Clear
66°F / 19°C 50°F / 10°C 56% 29.98 in
(1015 mb)
E 4.6 mph
(E 7 kph)
- 10SM
16:53
Mostly Cloudy
70°F / 21°C 50°F / 10°C 50% 30.01 in
(1016 mb)
SE 5.8 mph
(SE 9 kph)
- 10SM
15:53
Mostly Cloudy
70°F / 21°C 50°F / 10°C 50% 30.01 in
(1016 mb)
SSE 6.9 mph
(SSE 11 kph)
- 10SM
14:53
Overcast
70°F / 21°C 52°F / 11°C 53% 30.01 in
(1016 mb)
SE 6.9 mph
(SE 11 kph)
- 10SM
13:53
Overcast
70°F / 21°C 52°F / 11°C 53% 30.01 in
(1016 mb)
SW 9.2 mph
(SW 15 kph)
- 10SM
12:53
Mostly Cloudy
72°F / 22°C 55°F / 13°C 57% 30.01 in
(1016 mb)
S 9.2 mph
(S 15 kph)
- 10SM
11:53
Overcast
70°F / 21°C 57°F / 14°C 64% 30.04 in
(1017 mb)
S 13.8 mph
(S 22 kph)
- 10SM
10:53
Overcast
66°F / 19°C 57°F / 14°C 73% 30.04 in
(1017 mb)
SSE 6.9 mph
(SSE 11 kph)
- 10SM
09:53
Partly Cloudy
64°F / 18°C 59°F / 15°C 83% 30.04 in
(1017 mb)
SSE 11.5 mph
(SSE 19 kph)
- 10SM
08:53
Overcast
63°F / 17°C 59°F / 15°C 88% 30.04 in
(1017 mb)
S 12.7 mph
(S 20 kph)
0.00 in
(0.00 mm)
10SM
07:53
Overcast
Light Rain
61°F / 16°C 57°F / 14°C 88% 30.01 in
(1016 mb)
S 8.1 mph
(S 13 kph)
0.02 in
(0.51 mm)
6SM
06:53
Overcast
61°F / 16°C 57°F / 14°C 88% 29.98 in
(1015 mb)
S 9.2 mph
(S 15 kph)
0.00 in
(0.00 mm)
10SM
05:53
Overcast
61°F / 16°C 57°F / 14°C 88% 29.95 in
(1014 mb)
SSE 8.1 mph
(SSE 13 kph)
- 10SM
04:53
Mostly Cloudy
61°F / 16°C 57°F / 14°C 88% 29.92 in
(1013 mb)
S 8.1 mph
(S 13 kph)
- 10SM
03:53
Overcast
61°F / 16°C 57°F / 14°C 88% 29.89 in
(1012 mb)
S 13.8 mph
(S 22 kph)
0.00 in
(0.00 mm)
10SM
03:28
Overcast
61°F / 16°C 57°F / 14°C 88% 29.89 in
(1012 mb)
S 10.4 mph
(S 17 kph)
0.00 in
(0.00 mm)
10SM
03:18
Overcast
61°F / 16°C 57°F / 14°C 88% 29.89 in
(1012 mb)
S 10.4 mph
(S 17 kph)
0.00 in
(0.00 mm)
10SM
02:53
Overcast
Light Rain
61°F / 16°C 57°F / 14°C 88% 29.86 in
(1011 mb)
S 10.4 mph
(S 17 kph)
0.08 in
(2.03 mm)
3SM
02:44
Overcast
Light Rain
61°F / 16°C 57°F / 14°C 88% 29.89 in
(1012 mb)
SW 9.2 mph
(SW 15 kph)
0.06 in
(1.52 mm)
4SM
02:34
Overcast
Rain
61°F / 16°C 57°F / 14°C 88% 29.89 in
(1012 mb)
SSE 9.2 mph
(SSE 15 kph)
0.04 in
(1.02 mm)
2 1/2SM
01:53
Overcast
Light Rain
63°F / 17°C 55°F / 13°C 77% 29.86 in
(1011 mb)
S 10.4 mph
(S 17 kph)
0.00 in
(0.00 mm)
7SM
00:53
Overcast
63°F / 17°C 55°F / 13°C 77% 29.86 in
(1011 mb)
SE 8.1 mph
(SE 13 kph)
- 10SM
Time Weather Temperature Dewpoint Humidity Pressure Winds Precip Visibility


Weather for websites

WeatherForYou.com, LLC is not responsible for any damages or problems caused by this service. Current weather conditions are obtained from the closest station including government and personal stations which may have varying degrees of accuracy. Weather forecasts are derived from the NOAA NDFD. Like all things, this site belongs to Jesus Christ... He just trusts me to maintain it. If you have any questions or comments email webmaster@weatherforyou.com

Copyright © 2014, WeatherForYou.com LLC. All rights reserved.